Powrót do katalogu

FORMOSAT7-3/COSMIC2-3

AktywnyPogodaVLEO
NORAD 44343·PAYLOAD·🇹🇼 Taiwan

Wystrzelony Jun 25, 2019 z Cape Canaveral Space Force Station

Loading…

Następne Przeloty (najbliższe 24 godziny)

TLE

ŚwieżeSource: Space-Track

Epoka: Sep 14, 2026, 10:51 UTC

1 44343U 19036E   26257.45217214  .00003755  00000-0  20218-3 0  9991
2 44343  23.9990 283.8894 0000266 227.8323 132.2159 15.10377218396753

Śledź FORMOSAT7-3/COSMIC2-3 w czasie rzeczywistym z AllMySat

Download on the App Store